SCP
0 0 0 0 0 0 0 0 0 0 0 0 0 0 0 0 0 0 0 0 0 0 0 0 0 0 0 0 0 0 0 0 0 0 0 0 0 0 0 0 0 0 0
0 0 0 0 0 0 0 0 0 0 0 0 0 0 0 0 0 0 0 0 0 0 0 0 0 0 0 0 0 0 0 0 0 0 0 0 0 0 0 0 0 0 0
0 0 0 0 0 0 0 0 0 0 0 0 0 0 0 0 0 0 0 0 0 0 0 0 0 0 0 0 0 0 0 0 0 0 0 0 0 0 0 0 0 0 0
0 0 0 0 0 0 0 0 0 0 0 0 0 0 0 0 0 0 0 0 0 0 0 0 0 0 0 0 0 0 0 0 0 0 0 0 0 0 0 0 0 0 0
0 0 0 0 0 0 0 0 0 0 0 0 0 0 0 0 0 0 0 0 0 0 0 0 0 0 0 0 0 0 0 0 0 0 0 0 0 0 0 0 0 0 0
0 0 0 0 0 0 0 0 0 0 0 0 0 0 0 0 0 0 0 0 0 0 0 0 0 0 0 0 0 0 0 0 0 0 0 0 0 0 0 0 0 0 0
0 0 0 0 0 0 0 0 0 0 0 0 0 0 0 0 0 0 0 0 0 0 0 0 0 0 0 0 0 0 0 0 0 0 0 0 0 0 0 0 0 0 0
0 0 0 0 0 0 0 0 0 0 0 0 0 0 0 0 0 0 0 0 0 0 0 0 0 0 0 0 0 0 0 0 0 0 0 0 0 0 0 0 0 0 0
0 0 0 0 0 0 0 0 0 0 0 0 0 0 0 0 0 0 0 0 0 0 0 0 0 0 0 0 0 0 0 0 0 0 0 0 0 0 0 0 0 0 0
0 0 0 0 0 0 0 0 0 0 0 0 0 0 0 0 0 0 0 0 0 0 0 0 0 0 0 0 0 0 0 0 0 0 0 0 0 0 0 0 0 0 0
0 0 0 0 0 0 0 0 0 0 0 0 0 0 0 0 0 0 0 0 0 0 0 0 0 0 0 0 0 0 0 0 0 0 0 0 0 0 0 0 0 0 0
0 0 0 0 0 0 0 0 0 0 0 0 0 0 0 0 0 0 0 0 0 0 0 0 0 0 0 0 0 0 0 0 0 0 0 0 0 0 0 0 0 0 0
0 0 0 0 0 0 0 0 0 0 0 0 0 0 0 0 0 0 0 0 0 0 0 0 0 0 0 0 0 0 0 0 0 0 0 0 0 0 0 0 0 0 0
0 0 0 0 0 0 0 0 0 0 0 0 0 0 0 0 0 0 0 0 0 0 0 0 0 0 0 0 0 0 0 0 0 0 0 0 0 0 0 0 0 0 0
0 0 0 0 0 0 0 0 0 0 0 0 0 0 0 0 0 0 0 0 0 0 0 0 0 0 0 0 0 0 0 0 0 0 0 0 0 0 0 0 0 0 0
0 0 0 0 0 0 0 0 0 0 0 0 0 0 0 0 0 0 0 0 0 0 0 0 0 0 0 0 0 0 0 0 0 0 0 0 0 0 0 0 0 0 0
0 0 0 0 0 0 0 0 0 0 0 0 0 0 0 0 0 0 0 0 0 0 0 0 0 0 0 0 0 0 0 0 0 0 0 0 0 0 0 0 0 0 0
0 0 0 0 0 0 0 0 0 0 0 0 0 0 0 0 0 0 0 0 0 0 0 0 0 0 0 0 0 0 0 0 0 0 0 0 0 0 0 0 0 0 0
0 0 0 0 0 0 0 0 0 0 0 0 0 0 0 0 0 0 0 0 0 0 0 0 0 0 0 0 -0 0 0 0 0 0 0 0 0 0 0 0 0 0 0
0 0 0 0 0 0 0 0 0 0 0 0 0 0 0 0 0 0 0 0 0 0 0 0 0 0 0 0 -0 -0 0 0 0 0 0 0 0 0 0 0 0 0 0
0 0 0 0 0 0 0 0 0 0 0 0 0 0 0 0 0 0 0 0 0 0 0 0 0 0 0 0 0 0 0 0 0 0 0 0 0 0 0 0 0 0 0
0 0 0 0 0 0 0 0 0 0 0 0 0 0 0 0 0 0 0 0 0 0 0 0 0 0 0 0 0 0 0 0 0 0 0 0 0 0 0 0 0 0 0
0 0 0 0 0 0 0 0 0 0 0 0 0 0 0 0 0 0 0 0 0 0 0 0 0 0 0 0 0 0 0 0 0 0 0 0 0 0 0 0 0 0 0
0 0 0 0 0 0 0 0 0 0 0 0 0 0 0 0 0 0 0 0 0 0 0 0 0 0 0 0 0 0 0 0 0 0 0 0 0 0 0 0 0 0 0
0 0 0 0 0 0 0 0 0 0 0 0 0 0 0 0 0 0 0 0 0 0 0 0 0 0 0 0 0 0 0 0 0 0 0 0 0 0 0 0 0 0 0
0 0 0 0 0 0 0 0 0 0 0 0 0 0 0 0 0 0 0 0 0 0 0 0 0 0 0 0 0 0 0 0 0 0 0 0 0 0 0 0 0 0 0
Wind_Speed
2 2 1 1 2 2 2 2 3 3 4 4 4 4 4 4 4 4 3 6 6 6 7 7 8 8 8 8 7 7 7 7 6 6 6 6 6 6 6 7 7 7 7
2 2 2 1 1 1 1 2 3 3 2 2 3 4 3 3 3 3 3 4 6 6 6 6 6 7 7 7 6 6 6 5 5 5 5 5 5 5 5 6 6 6 6
2 2 2 2 1 1 2 2 3 3 3 3 3 3 3 3 3 3 3 2 2 4 5 6 5 5 5 6 5 5 4 4 4 4 4 4 4 4 5 4 5 5 5
2 2 2 1 1 2 2 2 2 2 2 2 2 2 2 2 3 2 2 2 2 2 3 5 5 4 4 4 4 4 4 3 3 3 3 3 3 4 4 4 4 4 5
2 2 1 1 1 2 2 2 2 2 2 2 2 2 2 2 2 2 2 2 2 2 2 3 4 4 3 3 3 3 3 2 2 2 2 2 2 3 3 4 4 4 4
2 2 2 1 2 2 2 2 2 2 2 2 3 3 2 2 2 2 2 2 2 2 2 2 2 2 3 3 2 2 2 2 2 1 1 2 2 2 3 4 4 4 4
2 2 2 2 2 2 2 3 2 3 2 2 3 2 3 3 2 2 2 2 2 2 2 2 2 2 1 2 2 1 1 0 0 0 0 0 2 3 3 4 5 5 5
1 2 2 2 2 2 3 3 3 2 1 1 2 2 1 2 3 3 2 2 2 2 2 2 2 2 2 1 1 1 2 2 2 2 1 2 2 2 3 3 4 4 4
1 1 1 1 1 2 3 3 3 3 3 1 1 2 3 2 1 2 2 2 2 2 1 2 2 1 1 1 1 2 3 3 3 3 3 3 3 4 4 4 5 4 4
0 1 1 1 1 1 3 3 3 2 4 2 0 1 1 3 2 1 1 1 2 2 1 2 1 1 1 1 2 3 4 4 4 5 5 5 5 5 5 5 5 5 5
1 1 1 1 1 1 2 3 3 3 3 3 2 1 1 1 1 2 2 2 2 1 2 2 1 1 1 1 1 3 5 5 5 5 6 6 6 6 7 7 6 6 6
1 1 1 1 1 1 2 3 3 4 3 3 2 2 3 2 2 2 2 2 2 2 2 2 2 1 1 1 2 4 5 6 6 7 7 7 7 7 7 8 7 7 6
1 2 1 2 2 2 2 2 3 4 4 3 3 3 2 2 2 2 2 2 2 2 2 2 2 1 1 1 2 4 5 6 7 7 8 8 8 7 8 8 9 8 7
2 2 2 2 2 2 2 3 2 3 3 4 4 3 2 2 2 2 2 2 1 2 2 3 2 2 2 2 3 4 4 6 7 8 8 7 8 8 8 8 8 8 8
2 2 1 2 2 2 2 3 3 3 4 4 4 4 3 3 2 2 2 3 3 3 4 3 2 2 2 2 4 3 3 6 8 8 7 7 7 7 7 7 7 8 8
2 2 2 2 3 3 3 3 3 3 4 4 3 4 4 3 3 3 3 2 2 3 4 3 3 2 2 3 5 4 4 7 7 7 7 7 7 7 7 8 8 8 8
2 3 3 3 3 4 3 4 4 4 4 4 4 5 5 4 3 3 3 3 3 3 4 4 3 2 3 3 4 3 4 4 4 7 7 7 8 8 8 8 8 8 8
3 3 2 3 3 4 4 5 5 5 5 5 5 5 6 4 5 4 4 4 4 4 4 5 3 3 4 4 4 4 4 4 3 7 8 8 8 9 9 9 9 9 9
3 3 2 3 3 4 4 5 5 5 6 6 6 6 6 6 6 5 5 5 4 4 3 4 4 3 3 3 3 4 4 4 4 5 7 8 9 9 10 10 10 10 10
3 3 3 3 3 4 5 5 5 5 5 5 5 5 6 7 7 7 6 6 5 4 4 4 4 3 3 3 3 3 4 3 4 4 6 7 8 10 10 11 10 10 10
3 3 3 3 3 3 4 5 5 5 5 5 5 5 6 7 9 7 6 6 6 5 4 4 4 4 4 4 4 4 4 3 4 3 3 4 4 4 5 8 10 10 10
2 2 3 3 4 4 6 7 5 4 4 4 4 4 5 6 8 10 10 9 9 7 7 6 5 6 6 5 4 4 4 3 4 3 3 4 3 4 4 4 9 11 11
2 2 3 3 4 5 7 7 7 4 4 4 4 4 4 5 6 5 8 10 10 11 11 7 7 7 6 6 5 6 6 5 6 3 3 5 3 5 4 6 11 12 12
3 3 3 4 4 5 7 7 7 4 3 4 5 5 5 5 5 5 5 6 6 7 8 6 6 6 6 5 6 6 6 5 5 3 3 5 4 4 5 5 11 13 12
3 3 3 4 4 5 7 7 6 3 3 4 5 5 5 5 8 9 6 5 6 6 8 9 10 9 11 11 8 4 4 4 5 4 3 3 3 4 4 5 7 11 12
3 3 3 3 4 4 7 7 6 3 3 3 3 4 7 7 9 9 5 5 6 6 4 5 6 7 6 7 10 7 5 5 5 4 4 4 3 2 4 3 4 4 6
Wind_Direction
91 79 62 61 67 63 74 79 74 72 67 60 56 58 53 51 50 46 34 48 67 86 99 105 108 108 107 104 103 100 101 101 100 100 101 106 113 116 113 114 114 115 113
101 94 81 65 66 67 70 97 100 94 80 70 63 57 52 47 52 51 47 42 51 69 85 95 100 102 105 105 103 102 99 104 109 113 113 109 111 119 126 125 120 121 127
97 100 95 75 56 65 68 70 92 95 84 71 63 53 54 47 48 47 43 48 43 52 74 84 90 95 101 104 106 104 99 107 120 122 124 125 126 128 129 134 137 137 135
90 98 95 79 60 79 77 78 89 99 92 84 75 52 47 46 45 46 46 47 49 41 57 71 76 88 93 98 105 108 100 92 112 128 134 137 145 149 149 147 148 154 157
88 99 101 92 94 93 79 80 73 104 112 92 78 60 49 43 34 50 52 46 46 45 42 57 59 63 77 90 101 108 109 100 106 124 136 150 162 172 174 176 174 171 170
91 105 107 101 111 110 91 89 95 76 111 109 87 58 35 24 28 49 51 44 41 45 48 46 43 48 57 65 80 93 99 106 101 108 168 203 196 194 204 197 191 191 184
90 105 111 123 125 128 133 123 114 99 78 93 94 66 28 22 34 36 35 40 31 27 41 47 37 29 33 39 39 47 43 131 187 165 147 228 236 219 222 216 208 206 203
88 109 119 143 147 137 128 122 123 121 86 88 115 115 72 7 6 12 23 37 19 21 26 25 38 31 13 352 353 350 316 297 280 263 250 237 243 243 237 223 210 202 201
70 103 125 147 161 162 160 153 151 132 150 170 100 137 145 185 288 339 16 20 13 15 7 6 16 14 9 0 335 325 319 290 270 260 255 254 249 243 243 235 223 216 210
167 112 128 153 167 174 169 168 159 144 153 168 142 28 110 145 160 231 316 348 353 343 338 346 351 347 349 348 333 339 333 307 281 273 265 258 255 250 248 244 231 228 222
210 165 147 164 175 182 178 169 164 157 160 173 172 157 113 102 139 159 224 286 317 297 303 292 277 289 299 303 314 313 315 311 289 279 274 270 267 261 254 252 243 239 239
229 209 184 188 193 199 191 182 180 175 179 180 183 169 165 172 181 174 197 237 273 281 285 272 268 271 272 287 308 321 315 312 305 287 276 272 271 274 268 258 251 246 246
243 229 209 206 208 217 207 189 185 186 190 190 197 199 192 201 183 185 183 207 262 286 279 259 245 264 268 264 281 302 297 301 299 298 289 280 276 274 277 271 259 253 248
224 234 223 213 215 214 214 199 198 202 200 201 210 209 203 214 198 192 181 175 229 275 263 254 251 230 247 259 275 297 288 292 292 291 291 297 293 280 276 276 270 265 258
220 203 224 232 224 220 217 201 206 214 209 210 212 213 211 212 207 210 200 189 187 222 245 239 239 236 251 269 278 278 278 282 286 290 292 295 301 299 284 278 275 270 266
220 204 212 242 238 226 222 209 212 217 215 216 212 213 220 215 207 202 200 213 211 211 236 233 244 263 261 270 278 286 274 285 285 285 287 289 287 291 292 281 274 271 266
223 213 217 228 241 232 224 215 216 214 221 224 218 218 227 218 211 209 208 213 219 216 243 262 257 249 244 253 264 272 270 260 269 276 280 283 282 281 285 283 276 272 270
216 220 218 230 247 242 232 221 220 219 218 224 225 221 227 222 217 215 216 223 225 223 227 251 258 246 248 242 249 252 271 267 262 270 271 276 279 279 279 280 277 271 267
217 219 215 226 241 245 238 229 222 224 224 225 226 224 226 221 222 221 221 225 226 232 232 236 250 253 256 246 256 264 265 266 264 264 262 269 275 277 279 279 277 273 268
223 220 226 233 244 253 247 235 224 225 225 229 231 230 230 227 225 221 223 222 222 223 226 231 242 247 248 245 237 248 262 260 261 267 260 267 271 274 278 278 277 276 270
239 233 231 242 250 253 250 234 226 224 225 228 230 232 238 243 241 235 231 220 216 219 221 230 238 243 241 230 232 236 250 271 268 248 254 259 262 261 264 270 272 272 271
245 243 238 240 246 254 270 258 242 228 229 232 240 243 248 252 251 254 254 246 235 224 222 227 235 236 240 235 238 239 239 256 267 232 236 262 253 259 263 258 266 270 265
242 241 244 244 249 261 271 270 261 241 224 232 241 244 252 256 259 253 254 254 251 251 246 239 237 239 237 231 227 237 236 242 256 241 237 266 254 260 263 267 271 272 270
243 244 246 246 250 265 277 279 274 257 231 234 238 237 242 247 250 250 248 250 250 251 253 247 238 240 242 237 233 238 241 257 271 247 219 257 260 259 266 265 268 268 270
248 248 246 241 244 263 276 280 275 257 248 241 243 244 248 246 255 257 249 248 258 264 266 263 260 257 257 255 249 242 231 240 263 251 212 236 259 269 268 261 263 265 268
252 255 261 254 250 257 270 279 277 256 258 250 247 250 258 262 259 258 241 233 247 257 260 266 267 267 262 254 252 240 230 236 254 255 213 212 244 255 271 256 245 254 263